Weather - Helsinki Query any day in the database

Current weather  

Weather data for a selected day (2006-01-01 -2020-10-30)
Enter date:     <-     scroll days         ->
day curves
Low temperature°C -23.023:50
High temperature°C -16.000:20
Low wind chill°C -32.510:50
Average temperature°C -19.4 
High wind speed (10 min) m/s 6.014:50
Low pressurehPa 1002.005:20
High pressurehPa 1008.023:50
Low R.H% 6512:50
High R.H% 8505:50
Day weather data as a table
Date Time Temp
°C
Chill
°C
Pressure
hPA
Wind
m/s
Hum
%
Precip
mm
2007-02-06 23:50:00 -23.0  -29.3  1008.0 2.0 77 -
2007-02-06 23:20:00 -23.0  -31.2  1008.0 3.0 77 -
2007-02-06 22:50:00 -22.0  -30.0  1008.0 3.0 70 -
2007-02-06 22:20:00 -22.0  -28.1  1008.0 2.0 70 -
2007-02-06 21:50:00 -22.0  -28.1  1008.0 2.0 77 -
2007-02-06 21:20:00 -22.0  -30.0  1008.0 3.0 77 -
2007-02-06 20:50:00 -22.0  -30.0  1007.0 3.0 77 -
2007-02-06 20:20:00 -21.0  -28.8  1007.0 3.0 77 -
2007-02-06 19:50:00 -21.0  -28.8  1007.0 3.0 77 -
2007-02-06 19:20:00 -20.0  -28.9  1007.0 4.0 77 -
2007-02-06 18:50:00 -20.0  -28.9  1007.0 4.0 77 -
2007-02-06 18:20:00 -20.0  -30.0  1007.0 5.0 77 -
2007-02-06 17:50:00 -20.0  -28.9  1006.0 4.0 77 -
2007-02-06 17:20:00 -19.0  -26.4  1006.0 3.0 71 -
2007-02-06 16:50:00 -19.0  -27.7  1006.0 4.0 71 -
2007-02-06 16:20:00 -18.0  -26.4  1006.0 4.0 65 -
2007-02-06 15:50:00 -18.0  -27.5  1006.0 5.0 65 -
2007-02-06 15:20:00 -18.0  -27.5  1006.0 5.0 65 -
2007-02-06 14:50:00 -18.0  -28.3  1006.0 6.0 65 -
2007-02-06 14:20:00 -18.0  -27.5  1005.0 5.0 65 -
2007-02-06 13:50:00 -19.0  -28.7  1005.0 5.0 71 -
2007-02-06 13:20:00 -19.0  -28.7  1005.0 5.0 71 -
2007-02-06 12:50:00 -19.0  -28.7  1005.0 5.0 65 -
2007-02-06 12:20:00 -20.0  -28.9  1005.0 4.0 71 -
2007-02-06 11:50:00 -21.0  -30.1  1005.0 4.0 77 -
2007-02-06 11:20:00 -21.0  -30.1  1005.0 4.0 70 -
2007-02-06 10:50:00 -22.0  -32.5  1005.0 5.0 77 -
2007-02-06 10:20:00 -22.0  -31.3  1005.0 4.0 77 -
2007-02-06 09:50:00 -22.0  -31.3  1005.0 4.0 84 -
2007-02-06 09:20:00 -21.0  -30.1  1004.0 4.0 77 -
2007-02-06 08:50:00 -20.0  -28.9  1004.0 4.0 84 -
2007-02-06 08:20:00 -19.0  -27.7  1004.0 4.0 77 -
2007-02-06 07:50:00 -18.0  -27.5  1003.0 5.0 78 -
2007-02-06 07:20:00 -18.0  -27.5  1003.0 5.0 84 -
2007-02-06 06:50:00 -18.0  -27.5  1003.0 5.0 84 -
2007-02-06 06:20:00 -18.0  -27.5  1003.0 5.0 84 -
2007-02-06 05:50:00 -17.0  -27.1  1003.0 6.0 85 -
2007-02-06 05:20:00 -17.0  -27.1  1002.0 6.0 85 -
2007-02-06 04:50:00 -17.0  -27.1  1002.0 6.0 85 -
2007-02-06 04:20:00 -17.0  -27.1  1002.0 6.0 85 -
2007-02-06 02:20:00 -17.0  -25.2  1002.0 4.0 78 -
2007-02-06 01:50:00 -17.0  -25.2  1002.0 4.0 78 -
2007-02-06 01:20:00 -17.0  -26.2  1002.0 5.0 78 -
2007-02-06 00:50:00 -17.0  -26.2  1002.0 5.0 78 -
2007-02-06 00:20:00 -16.0  -25.0  1002.0 5.0 78 -
Unit conversions: